Zurück zum Katalog

BREEZE-M DEB

LostHEO
NORAD 39331·DEBRIS·🇷🇺 Russia

Gestartet Mar 14, 2008 von Baikonur Cosmodrome

Loading…

Nächste Überflüge (nächste 24 Stunden)

TLE

VeraltetSource: Space-Track

Epoche: Oct 22, 2015, 00:29 UTC

1 39331U 08011DJ  15295.02076716  .00000025  00000-0  83052-3 0  9998
2 39331  48.7847 218.8898 6477118 182.6866 170.6102  3.16317968 40920

Verfolge BREEZE-M DEB in Echtzeit mit AllMySat

Download on the App Store